Weather History for K0CO - August, 2013

Change the Weather History Date:

Thursday, August 1, 2013

  Actual Average (KDEN) Record (KDEN)
Temperature  
Mean Temperature 45 °F 75 °F  
Max Temperature 51 °F 90 °F 104 °F (2008)
Min Temperature 39 °F 60 °F 42 °F (1995)
Degree Days  
Heating Degree Days 20 0  
Month to date heating degree days 0  
Since 1 June heating degree days 68  
Since 1 July heating degree days 6  
Cooling Degree Days 0 10  
Month to date cooling degree days 10  
Year to date cooling degree days 454  
Since 1 June cooling degree days 432  
Moisture  
Dew Point 18 °F    
Average Humidity 32    
Maximum Humidity 34    
Minimum Humidity 30    
Precipitation  
Precipitation 0.00 in 0.07 in 1.71 in (1976)
Month to date precipitation 0.07  
Year to date precipitation 9.74  
Snow  
Snow 0.00 in - - ()
Month to date snowfall  
Since 1 June snowfall  
Since 1 July snowfall  
Snow Depth -    
Sea Level Pressure  
Sea Level Pressure 30.71 in    
Wind  
Wind Speed 10 mph (West)    
Max Wind Speed 20 mph    
Max Gust Speed 34 mph    
Visibility 10 miles    
Events Thunderstorm    
T = Trace of Precipitation, MM = Missing Value Source: NWS Daily Summary

Daily Weather History Graph

Daily Weather History Graph

Search for Another Location

Airport or City:

Trip Planner

Search our weather history database for the weather conditions in past years. The results will help you decide how hot, cold, wet, or windy it might be!

Date:

Astronomy

Aug. 01, 2013 Rise Set
Actual Time 6:02 AM MDT 8:15 PM MDT
Civil Twilight 5:32 AM MDT 8:45 PM MDT
Nautical Twilight 4:54 AM MDT 9:22 PM MDT
Astronomical Twilight 4:14 AM MDT 10:03 PM MDT
Moon 1:40 AM MDT (8/1) 4:27 PM MDT (8/1)
Length of Visible Light 15h 13m
Length of Day
14h 13m
Waning Crescent, 23% of the Moon is Illuminated
Aug 1
Waning Crescent
Aug 6
New
Aug 14
First Quarter
Aug 20
Full
Aug 28
Last Quarter

Hourly Weather History & Observations

Time (MDT) Temp. Windchill Dew Point Humidity Pressure Visibility Wind Dir Wind Speed Gust Speed Precip Events Conditions
12:12 AM 44.6 °F - 17.6 °F 34% 30.79 in 10.0 mi North - - N/A   Clear
12:32 AM 44.6 °F - 15.8 °F 31% 30.79 in 10.0 mi North - - N/A   Clear
12:52 AM 44.6 °F 40.7 °F 17.6 °F 34% 30.78 in 10.0 mi SE 6.9 mph - N/A   Clear
1:12 AM 44.6 °F 42.2 °F 15.8 °F 31% 30.77 in 10.0 mi South 4.6 mph - N/A   Clear
1:32 AM 44.6 °F 41.4 °F 17.6 °F 34% 30.76 in 10.0 mi SSW 5.8 mph - N/A   Clear
1:52 AM 44.6 °F 38.8 °F 15.8 °F 31% 30.76 in 10.0 mi SSW 11.5 mph 18.4 mph N/A   Clear
2:12 AM 44.6 °F 40.2 °F 15.8 °F 31% 30.76 in 10.0 mi SW 8.1 mph - N/A   Clear
2:32 AM 44.6 °F 39.7 °F 15.8 °F 31% 30.76 in 10.0 mi SW 9.2 mph - N/A   Clear
2:52 AM 44.6 °F 40.2 °F 15.8 °F 31% 30.76 in 10.0 mi SW 8.1 mph - N/A   Clear
3:12 AM 44.6 °F 41.4 °F 15.8 °F 31% 30.75 in 10.0 mi SW 5.8 mph - N/A   Clear
3:32 AM 44.6 °F 40.7 °F 15.8 °F 31% 30.75 in 10.0 mi WSW 6.9 mph - N/A   Clear
3:52 AM 44.6 °F 40.7 °F 15.8 °F 31% 30.75 in 10.0 mi West 6.9 mph - N/A   Clear
4:12 AM 44.6 °F 39.2 °F 17.6 °F 34% 30.74 in 10.0 mi West 10.4 mph - N/A   Clear
4:32 AM 44.6 °F 38.1 °F 17.6 °F 34% 30.74 in 10.0 mi West 13.8 mph 19.6 mph N/A   Clear
4:52 AM 44.6 °F 37.2 °F 17.6 °F 34% 30.73 in 10.0 mi West 17.3 mph 20.7 mph N/A   Clear
5:12 AM 44.6 °F 37.2 °F 17.6 °F 34% 30.74 in 10.0 mi West 17.3 mph 21.9 mph N/A   Clear
5:31 AM 44.6 °F 38.4 °F 15.8 °F 31% 30.74 in 10.0 mi West 12.7 mph - N/A   Clear
5:52 AM 44.6 °F 38.8 °F 17.6 °F 34% 30.74 in 10.0 mi West 11.5 mph - N/A   Clear
6:11 AM 44.6 °F 37.4 °F 17.6 °F 34% 30.74 in 10.0 mi West 16.1 mph 20.7 mph N/A   Clear
6:31 AM 44.6 °F 37.2 °F 17.6 °F 34% 30.74 in 10.0 mi West 17.3 mph 25.3 mph N/A   Clear
6:51 AM 44.6 °F - 17.6 °F 34% 30.74 in 10.0 mi North - - N/A   Clear
7:11 AM 44.6 °F - 17.6 °F 34% 30.74 in 10.0 mi North - - N/A   Clear
7:31 AM 44.6 °F 37.2 °F 17.6 °F 34% 30.74 in 10.0 mi West 17.3 mph - N/A   Clear
7:51 AM 46.4 °F - 17.6 °F 32% 30.74 in 10.0 mi North - - N/A   Clear
8:11 AM 46.4 °F 40.1 °F 17.6 °F 32% 30.74 in 10.0 mi West 15.0 mph - N/A   Clear
8:31 AM 46.4 °F - 17.6 °F 32% 30.75 in 10.0 mi North - - N/A   Clear
8:51 AM 48.2 °F - 19.4 °F 32% 30.75 in 10.0 mi WNW 11.5 mph - N/A   Clear
9:11 AM 50.0 °F - 21.2 °F 32% 30.75 in 10.0 mi WNW 13.8 mph 19.6 mph N/A   Clear
9:31 AM 50.0 °F - 21.2 °F 32% 30.74 in 10.0 mi WNW 15.0 mph 20.7 mph N/A   Clear
9:51 AM 51.8 °F - 23.0 °F 33% 30.74 in 10.0 mi WNW 16.1 mph 26.5 mph N/A   Scattered Clouds
10:11 AM 50.0 °F - 21.2 °F 32% 30.75 in 10.0 mi WNW 15.0 mph 21.9 mph N/A   Mostly Cloudy
10:31 AM 51.8 °F - 23.0 °F 33% 30.75 in 10.0 mi West 12.7 mph 24.2 mph N/A   Mostly Cloudy
10:51 AM 51.8 °F - 23.0 °F 33% 30.74 in 10.0 mi North 5.8 mph 10.4 mph N/A   Overcast
11:11 AM 51.8 °F - 23.0 °F 33% 30.75 in 10.0 mi North 5.8 mph 17.3 mph N/A   Overcast
11:31 AM 51.8 °F - 23.0 °F 33% 30.74 in 10.0 mi North 4.6 mph - N/A   Overcast
11:51 AM 51.8 °F - 23.0 °F 33% 30.73 in 10.0 mi NNW 11.5 mph 16.1 mph N/A   Scattered Clouds
12:11 PM 51.8 °F - 23.0 °F 33% 30.73 in 10.0 mi NW 10.4 mph 18.4 mph N/A Thunderstorm Thunderstorm
12:31 PM 51.8 °F - 23.0 °F 33% 30.73 in 10.0 mi NW 6.9 mph - N/A Thunderstorm Thunderstorm
12:51 PM 51.8 °F - 23.0 °F 33% 30.72 in 10.0 mi West 16.1 mph 23.0 mph N/A   Scattered Clouds
1:11 PM 50.0 °F - 21.2 °F 32% 30.72 in 10.0 mi SW 13.8 mph 34.5 mph N/A Thunderstorm Mostly Cloudy
1:31 PM 50.0 °F - 21.2 °F 32% 30.72 in 10.0 mi West 9.2 mph - N/A Thunderstorm Thunderstorm
1:51 PM 51.8 °F - 23.0 °F 33% 30.71 in 10.0 mi West 9.2 mph - N/A Thunderstorm Clear
2:11 PM 51.8 °F - 23.0 °F 33% 30.71 in 10.0 mi WSW 9.2 mph - N/A Thunderstorm Scattered Clouds
2:31 PM 51.8 °F - 23.0 °F 33% 30.71 in 10.0 mi West 18.4 mph 21.9 mph N/A Thunderstorm Scattered Clouds
2:51 PM 51.8 °F - 23.0 °F 33% 30.71 in 10.0 mi West 9.2 mph - N/A   Scattered Clouds
3:11 PM 51.8 °F - 21.2 °F 30% 30.70 in 10.0 mi SW 19.6 mph 25.3 mph N/A Thunderstorm Mostly Cloudy
3:31 PM 48.2 °F - 19.4 °F 32% 30.70 in 10.0 mi SW 13.8 mph 24.2 mph N/A   Overcast
3:51 PM 46.4 °F 40.4 °F 19.4 °F 34% 30.68 in 10.0 mi WSW 13.8 mph 24.2 mph N/A   Overcast
4:11 PM 46.4 °F 39.8 °F 19.4 °F 34% 30.67 in 10.0 mi SW 16.1 mph 24.2 mph N/A   Overcast
4:31 PM 46.4 °F 39.8 °F 17.6 °F 32% 30.66 in 10.0 mi SW 16.1 mph 20.7 mph N/A   Overcast
4:51 PM 46.4 °F 40.4 °F 17.6 °F 32% 30.66 in 10.0 mi SW 13.8 mph 21.9 mph N/A   Overcast
5:11 PM 46.4 °F 41.5 °F 19.4 °F 34% 30.65 in 10.0 mi SW 10.4 mph - N/A   Overcast
5:31 PM 48.2 °F - 19.4 °F 32% 30.65 in 10.0 mi SW 10.4 mph 16.1 mph N/A   Scattered Clouds
5:51 PM 50.0 °F - 21.2 °F 32% 30.66 in 10.0 mi West 8.1 mph - N/A   Scattered Clouds
6:11 PM 48.2 °F - 19.4 °F 32% 30.65 in 10.0 mi SW 8.1 mph 16.1 mph N/A   Mostly Cloudy
6:31 PM 46.4 °F 41.9 °F 19.4 °F 34% 30.65 in 10.0 mi West 9.2 mph - N/A   Overcast
6:51 PM 46.4 °F 41.5 °F 17.6 °F 32% 30.64 in 10.0 mi NNW 10.4 mph - N/A   Overcast
7:11 PM 44.6 °F 40.2 °F 17.6 °F 34% 30.64 in 10.0 mi North 8.1 mph - N/A   Overcast
7:32 PM 44.6 °F 40.7 °F 15.8 °F 31% 30.64 in 10.0 mi North 6.9 mph - N/A   Overcast
7:52 PM 42.8 °F 37.0 °F 14.0 °F 31% 30.64 in 10.0 mi North 10.4 mph 17.3 mph N/A   Overcast
8:11 PM 41.0 °F - 14.0 °F 33% 30.64 in 10.0 mi North - - N/A   Scattered Clouds
8:32 PM 41.0 °F 35.2 °F 12.2 °F 31% 30.64 in 10.0 mi NNE 9.2 mph 12.7 mph N/A   Mostly Cloudy
8:52 PM 41.0 °F 34.7 °F 12.2 °F 31% 30.64 in 10.0 mi North 10.4 mph 16.1 mph N/A   Overcast
9:11 PM 39.2 °F 30.8 °F 12.2 °F 33% 30.64 in 10.0 mi NNW 15.0 mph - N/A   Mostly Cloudy
9:31 PM 39.2 °F - 10.4 °F 31% 30.64 in 10.0 mi North - - N/A   Scattered Clouds
9:52 PM 39.2 °F - 12.2 °F 33% 30.63 in 10.0 mi North - - N/A   Clear
10:11 PM 39.2 °F - 12.2 °F 33% 30.63 in 10.0 mi North - - N/A   Clear
10:31 PM 41.0 °F - 12.2 °F 31% 30.62 in 10.0 mi North - - N/A   Clear
10:51 PM 41.0 °F - 12.2 °F 31% 30.61 in 10.0 mi North - - N/A   Clear
11:11 PM 41.0 °F - 14.0 °F 33% 30.61 in 10.0 mi North - - N/A   Clear
11:31 PM 41.0 °F - 12.2 °F 31% 30.61 in 10.0 mi North - - N/A   Clear
11:51 PM 41.0 °F - 12.2 °F 31% 30.60 in 10.0 mi North - - N/A   Clear